This is the latest recevied weather packets stored in our database for station/object N3LF. If no packets are shown the sender has not sent any weather packets the latest 10 day(s).
| Time | Temp. | Humidity | Pressure | Rain* | Wind** | Luminosity | Snow |
|---|---|---|---|---|---|---|---|
| 1788381715 | 37.78° C | 42% | 1019.2 hPa | 0 mm | - | 434 W/m² | - |
| 1788381412 | 37.22° C | 48% | 1019.3 hPa | 0 mm | - | 438 W/m² | - |
| 1788381112 | 38.33° C | 45% | 1019.3 hPa | 0 mm | - | 452 W/m² | - |
| 1788380806 | 38.33° C | 44% | 1019.3 hPa | 0 mm | - | 466 W/m² | - |
| 1788380503 | 36.67° C | 45% | 1019.4 hPa | 0 mm | - | 475 W/m² | - |
| 1788380199 | 37.22° C | 44% | 1019.6 hPa | 0 mm | - | 490 W/m² | - |
| 1788379898 | 36.11° C | 47% | 1019.5 hPa | 0 mm | - | 511 W/m² | - |
| 1788379593 | 37.22° C | 44% | 1019.7 hPa | 0 mm | - | 125 W/m² | - |
| 1788379289 | 37.78° C | 45% | 1019.8 hPa | 0 mm | - | 534 W/m² | - |
| 1788378985 | 37.22° C | 45% | 1019.6 hPa | 0 mm | - | 533 W/m² | - |
| 1788378684 | 37.22° C | 43% | 1019.7 hPa | 0 mm | - | 539 W/m² | - |
| 1788378383 | 38.33° C | 44% | 1020 hPa | 0 mm | - | 551 W/m² | - |
| 1788378079 | 37.78° C | 43% | 1020 hPa | 0 mm | - | 559 W/m² | - |
| 1788377775 | 37.78° C | 44% | 1020.1 hPa | 0 mm | - | 565 W/m² | - |
| 1788377474 | 37.78° C | 45% | 1020.1 hPa | 0 mm | - | 573 W/m² | - |
| 1788377173 | 37.78° C | 47% | 1020.1 hPa | 0 mm | - | 583 W/m² | - |
| 1788376872 | 36.67° C | 46% | 1020.1 hPa | 0 mm | - | 589 W/m² | - |
| 1788376567 | 37.78° C | 46% | 1020.2 hPa | 0 mm | - | 590 W/m² | - |
| 1788376261 | 37.22° C | 45% | 1020.4 hPa | 0 mm | - | 607 W/m² | - |
| 1788375957 | 37.22° C | 46% | 1020.3 hPa | 0 mm | - | 607 W/m² | - |
| 1788375652 | 37.78° C | 46% | 1020.4 hPa | 0 mm | - | 619 W/m² | - |
| 1788375348 | 37.78° C | 43% | 1020.4 hPa | 0 mm | - | 621 W/m² | - |
| 1788375044 | 37.78° C | 43% | 1020.5 hPa | 0 mm | - | 633 W/m² | - |
| 1788374738 | 37.22° C | 45% | 1020.6 hPa | 0 mm | - | 635 W/m² | - |
| 1788374434 | 37.22° C | 45% | 1020.5 hPa | 0 mm | - | 640 W/m² | - |
* Rain latest hour (hover to see other rain measurements)
** Current wind speed in m/s (hover to see current wind gust speed)